Location: Unspecified
(51.0950°N, 12.9690°E)
Time: 08:22:24
(UTC+00:00)

PCSat - Pass Details

Date: 23 April 2024
Orbit: 783 x 792 km, 67.1° (Epoch: 27 May)

Event Time Altitude Azimuth Distance (km) Brightness Sun altitude
Rises 00:24:12 0° 320° (NW) 3,299 13.2 -24.1°
Reaches altitude 10° 00:27:07 10° 335° (NNW) 2,369 12.6 -23.9°
Maximum altitude 00:31:26 23° 28° (NNE) 1,624 12.0 -23.6°
Drops below altitude 10° 00:35:44 10° 80° (E) 2,364 12.4 -23.4°
Sets 00:38:38 0° 95° (E) 3,291 13.0 -23.2°
